GW5874 Weather Reports


time (UTC)temp
F
wind
direction
speed
knots
gust
knots
rain 1hr
in
rain 24hr
in
rain mn
in
humidity
%
barometer
mb
20260506015744 47 58 1.7 3.5 0.00 0.85 0.85 91 1010.7
20260506015241 47 163 1.7 2.6 0.00 0.85 0.85 92 1010.8
20260506014738 47 107 1.7 2.6 0.00 0.85 0.85 91 1010.6
20260506014234 47 38 1.7 3.5 0.00 0.85 0.85 91 1010.8
20260506013732 47 336 1.7 2.6 0.00 0.85 0.85 91 1010.6
20260506013229 47 339 2.6 4.3 0.00 0.85 0.85 91 1010.5
20260506012725 47 21 3.5 3.5 0.00 0.85 0.85 92 1010.4
20260506012222 47 287 2.6 3.5 0.00 0.85 0.85 92 1010.2
20260506011719 47 250 0.9 0.9 0.00 0.85 0.85 92 1010.5
20260506011215 47 260 0.0 0.9 0.00 0.85 0.85 92 1010.1
20260506010714 47 249 2.6 3.5 0.00 0.85 0.85 92 1010.1
20260506010211 47 297 0.0 0.0 0.00 0.85 0.85 92 1010.4
20260506005708 47 212 0.9 0.9 0.00 0.85 0.85 92 1010.3
20260506005205 47 217 0.0 0.9 0.00 0.85 0.85 92 1010.0
20260506004700 47 281 4.3 7.0 0.00 0.85 0.85 92 1009.9
20260506004159 47 222 2.6 4.3 0.00 0.85 0.85 92 1010.0
20260506003654 48 323 1.7 2.6 0.00 0.85 0.85 91 1009.7
20260506003151 48 263 0.9 2.6 0.00 0.85 0.85 91 1009.9
20260506002646 48 319 2.6 4.3 0.00 0.85 0.85 90 1010.0
20260506002143 48 279 1.7 2.6 0.00 0.85 0.85 90 1010.0
20260506001638 48 132 7.0 8.7 0.00 0.85 0.85 90 1010.0
20260506001136 48 254 1.7 2.6 0.00 0.85 0.85 90 1009.7
20260506000633 48 87 1.7 2.6 0.00 0.85 0.85 89 1009.9
20260506000131 48 41 3.5 4.3 0.00 0.85 0.85 88 1010.0
20260505235629 48 62 2.6 3.5 0.00 0.85 0.85 88 1009.9
20260505235125 48 2 2.6 3.5 0.00 0.85 0.85 89 1009.9
20260505234622 48 47 5.2 8.7 0.00 0.85 0.85 88 1009.4
20260505234119 48 117 7.0 10.4 0.00 0.85 0.85 88 1009.6
20260505233617 48 254 0.0 0.9 0.00 0.85 0.85 88 1009.4
20260505233114 48 192 1.7 2.6 0.00 0.85 0.85 88 1009.5
20260505232612 48 64 6.1 9.6 0.00 0.85 0.85 87 1009.1
20260505232109 48 12 4.3 7.0 0.00 0.85 0.85 88 1009.1
20260505231606 49 184 2.6 4.3 0.00 0.85 0.85 87 1008.9
20260505231104 49 128 1.7 2.6 0.00 0.85 0.85 86 1009.0
20260505230602 49 196 1.7 2.6 0.00 0.85 0.85 86 1009.2
20260505230058 49 213 0.0 0.9 0.00 0.85 0.85 85 1009.0
20260505225555 49 341 4.3 6.1 0.00 0.85 0.85 85 1009.2
20260505225050 49 301 0.9 0.9 0.00 0.85 0.85 84 1009.0
20260505224548 49 248 0.9 0.9 0.00 0.85 0.85 84 1009.0
20260505224045 49 337 3.5 3.5 0.00 0.85 0.85 84 1009.0
20260505223542 50 283 1.7 3.5 0.00 0.85 0.85 85 1008.7
20260505223038 50 73 0.0 0.9 0.00 0.85 0.85 84 1008.9
20260505222534 50 308 1.7 2.6 0.00 0.85 0.85 84 1008.4
20260505222031 50 207 0.0 0.9 0.00 0.85 0.85 84 1008.4
20260505221528 50 335 2.6 3.5 0.00 0.85 0.85 83 1008.5
20260505221024 50 1 4.3 7.0 0.00 0.85 0.85 84 1008.4
20260505220522 50 60 1.7 3.5 0.00 0.85 0.85 84 1008.4
20260505220020 50 2 5.2 7.0 0.00 0.85 0.85 86 1008.5
20260505215518 50 174 3.5 4.3 0.00 0.85 0.85 85 1008.7
20260505215015 50 57 7.0 9.6 0.00 0.85 0.85 85 1008.7
20260505214513 50 227 2.6 3.5 0.00 0.85 0.85 86 1008.5
20260505214009 50 112 3.5 6.1 0.00 0.85 0.85 86 1008.4
20260505213508 50 305 0.9 0.9 0.00 0.85 0.85 87 1008.4
20260505213004 50 102 1.7 2.6 0.00 0.85 0.85 87 1008.2
20260505212500 50 71 5.2 7.0 0.00 0.85 0.85 85 1008.3
20260505211957 50 262 1.7 2.6 0.00 0.85 0.85 86 1008.3
20260505211454 50 287 3.5 4.3 0.00 0.85 0.85 87 1008.2
20260505210950 50 158 7.0 9.6 0.00 0.85 0.85 88 1008.2
20260505210448 50 43 9.6 13.0 0.00 0.85 0.85 89 1008.4
20260505205944 50 203 1.7 2.6 0.00 0.85 0.85 90 1008.3
20260505205443 50 49 1.7 3.5 0.00 0.85 0.85 90 1008.4
20260505204939 51 35 4.3 6.1 0.00 0.85 0.85 89 1008.3
20260505204437 51 304 3.5 3.5 0.00 0.85 0.85 88 1008.5
20260505203934 51 82 1.7 2.6 0.00 0.85 0.85 88 1008.4
20260505203431 51 322 0.9 2.6 0.00 0.85 0.85 88 1008.5
20260505202927 51 324 4.3 7.0 0.00 0.85 0.85 88 1008.5
20260505202423 51 251 4.3 6.1 0.00 0.85 0.85 88 1008.2
20260505201920 51 189 4.3 4.3 0.00 0.85 0.85 89 1008.0
20260505201417 51 280 4.3 6.1 0.00 0.85 0.85 89 1008.1
20260505200915 51 42 4.3 6.1 0.00 0.85 0.85 90 1008.2
20260505200412 51 18 4.3 6.1 0.00 0.85 0.85 90 1008.3
20260505195907 51 264 4.3 7.0 0.00 0.85 0.85 90 1008.3
20260505195405 52 263 0.0 0.9 0.00 0.85 0.85 91 1007.8
20260505194902 52 281 6.1 8.7 0.00 0.85 0.85 91 1008.0
20260505194400 52 126 1.7 2.6 0.00 0.85 0.85 91 1008.0
20260505193900 52 60 0.9 2.6 0.00 0.85 0.85 90 1008.1
20260505193358 52 263 2.6 3.5 0.00 0.85 0.85 89 1008.1
20260505192855 52 221 1.7 3.5 0.00 0.85 0.85 90 1008.1
20260505192354 52 290 2.6 6.1 0.00 0.85 0.85 89 1007.8
20260505191851 52 334 3.5 4.3 0.00 0.85 0.85 89 1007.9
20260505191349 53 296 2.6 4.3 0.00 0.85 0.85 89 1007.5
20260505190846 53 109 4.3 9.6 0.00 0.85 0.85 88 1007.5
20260505190341 53 199 2.6 4.3 0.00 0.85 0.85 88 1007.6
20260505185837 53 295 3.5 4.3 0.00 0.85 0.85 88 1007.5
20260505185334 53 235 0.9 0.9 0.00 0.85 0.85 88 1007.7
20260505184830 53 337 5.2 7.0 0.00 0.85 0.85 89 1007.4
20260505184327 53 242 0.0 0.9 0.00 0.85 0.85 90 1007.8
20260505183824 53 26 4.3 8.7 0.00 0.85 0.85 88 1007.8
20260505183321 53 222 1.7 2.6 0.00 0.85 0.85 89 1008.0
20260505182818 53 180 2.6 3.5 0.00 0.85 0.85 89 1007.7
20260505182314 54 8 5.2 6.1 0.00 0.85 0.85 89 1007.7
20260505181811 54 322 1.7 3.5 0.00 0.85 0.85 89 1007.5
20260505181309 54 294 2.6 4.3 0.00 0.85 0.85 89 1007.4
20260505180805 54 140 1.7 3.5 0.00 0.85 0.85 90 1007.2
20260505180301 54 29 3.5 4.3 0.05 0.85 0.85 90 1007.2
20260505175758 54 56 4.3 6.1 0.05 0.85 0.85 90 1006.9
20260505175254 54 124 4.3 4.3 0.00 0.84 0.84 90 1007.4
20260505174751 54 111 7.8 9.6 0.00 0.84 0.84 90 1007.1
20260505174248 54 123 4.3 7.0 0.00 0.84 0.84 90 1007.3
20260505173744 54 70 2.6 4.3 0.00 0.84 0.84 91 1007.2
20260505173241 54 266 1.7 2.6 0.00 0.84 0.84 91 1007.3
20260505172738 54 36 3.5 6.1 0.00 0.84 0.84 91 1007.1
20260505172235 54 108 2.6 3.5 0.00 0.84 0.84 92 1007.0
20260505171735 54 16 4.3 6.1 0.00 0.84 0.84 92 1006.9
20260505171232 54 256 4.3 7.0 0.00 0.84 0.84 92 1007.1
20260505170729 54 123 5.2 7.0 0.00 0.84 0.84 92 1006.9
20260505170226 54 283 2.6 3.5 0.00 0.84 0.84 92 1007.0
20260505165721 54 20 3.5 4.3 0.00 0.84 0.84 92 1007.0
20260505165217 55 268 2.6 2.6 0.00 0.84 0.84 93 1007.1
20260505164713 55 89 2.6 3.5 0.00 0.84 0.84 93 1006.8
20260505164210 55 47 6.1 8.7 0.00 0.84 0.84 93 1007.0
20260505163708 55 32 0.9 0.9 0.00 0.84 0.84 93 1006.8
20260505163206 55 31 2.6 3.5 0.00 0.84 0.84 93 1007.0
20260505162703 55 318 0.9 2.6 0.00 0.84 0.84 93 1006.9
20260505162201 55 223 1.7 3.5 0.00 0.84 0.84 93 1006.8
20260505161657 55 59 4.3 7.0 0.00 0.84 0.84 93 1006.9
20260505161154 55 44 1.7 4.3 0.00 0.84 0.84 93 1006.9
20260505160652 55 0 7.0 9.6 0.00 0.84 0.84 93 1006.6
20260505160150 56 348 3.5 8.7 0.00 0.84 0.84 95 1006.4
20260505153129 57 314 0.9 0.9 0.00 0.84 0.84 95 1006.3
20260505152625 57 284 2.6 3.5 0.00 0.84 0.84 95 1006.2
20260505152121 57 134 4.3 4.3 0.00 0.84 0.84 95 1006.2
20260505151617 58 71 0.0 0.9 0.00 0.84 0.84 95 1006.1
20260505151114 58 287 0.9 0.9 0.00 0.84 0.84 96 1006.1
20260505150610 58 231 0.0 0.9 0.00 0.84 0.84 96 1006.1
20260505150108 58 345 3.5 4.3 0.00 0.84 0.84 96 1005.9
20260505140536 60 81 0.9 0.9 0.00 0.84 0.84 99 1005.9
20260505124949 60 102 0.9 0.9 0.00 0.84 0.84 99 1005.7
20260505124446 60 78 0.0 0.0 0.00 0.84 0.84 99 1005.6
20260505123942 60 195 1.7 2.6 0.07 0.84 0.84 99 1005.6
20260505123439 60 18 0.9 0.9 0.07 0.84 0.84 99 1005.7
20260505122935 60 340 0.0 0.9 0.00 0.83 0.83 99 1005.6
20260505122432 60 265 0.9 0.9 0.00 0.83 0.83 99 1005.6
20260505121929 60 291 0.0 0.0 0.00 0.83 0.83 99 1005.3
20260505121426 60 64 1.7 3.5 0.05 0.83 0.83 99 1005.0
20260505120922 60 201 1.7 2.6 0.05 0.83 0.83 99 1005.2
20260505120418 60 239 0.0 0.0 0.00 0.82 0.82 99 1005.0
20260505115917 60 215 0.0 0.9 0.00 0.82 0.82 99 1005.0
20260505115414 60 305 0.0 0.0 0.00 0.82 0.82 99 1005.3
20260505114912 60 285 0.9 2.6 0.00 0.82 0.82 99 1004.9
20260505114408 60 104 3.5 6.1 0.00 0.82 0.82 99 1004.7
20260505113905 60 342 0.9 0.9 0.00 0.82 0.82 99 1004.7
20260505113402 60 292 0.9 0.9 0.00 0.82 0.82 99 1004.8
20260505112857 61 220 2.6 3.5 0.00 0.82 0.82 99 1004.7
20260505112355 60 7 0.9 0.9 0.00 0.82 0.82 99 1004.4
20260505111850 61 258 0.0 0.0 0.00 0.82 0.82 99 1004.4
20260505111346 61 313 0.9 0.9 0.00 0.82 0.82 99 1004.4
20260505110842 60 329 1.7 2.6 0.00 0.82 0.82 99 1004.5
20260505110340 61 273 0.9 0.9 0.00 0.82 0.82 99 1004.5
20260505101815 61 200 3.5 4.3 0.00 0.82 0.82 99 1004.4
20260505101310 61 204 1.7 2.6 0.00 0.82 0.82 99 1004.4
20260505100806 61 343 0.0 0.9 0.00 0.82 0.82 99 1004.5
20260505100303 61 202 2.6 2.6 0.00 0.82 0.82 99 1004.5
20260505095759 61 164 1.7 3.5 0.00 0.82 0.82 99 1004.5
20260505095257 61 172 1.7 2.6 0.00 0.82 0.82 99 1004.4
20260505094752 61 200 0.0 0.0 0.00 0.82 0.82 99 1004.6
20260505094249 61 205 3.5 3.5 0.00 0.82 0.82 99 1004.9
20260505093744 61 206 2.6 3.5 0.00 0.82 0.82 99 1005.0
20260505093242 61 208 1.7 2.6 0.07 0.82 0.82 99 1005.0
20260505092739 61 161 1.7 2.6 0.12 0.82 0.82 99 1005.0
20260505092238 61 183 2.6 2.6 0.05 0.81 0.81 99 1005.4
20260505091734 61 337 1.7 2.6 0.00 0.80 0.80 99 1005.4
20260505091233 61 270 1.7 2.6 0.00 0.80 0.80 98 1005.3
20260505090730 61 212 1.7 2.6 0.07 0.80 0.80 98 1005.3
20260505090228 61 146 0.9 0.9 0.07 0.80 0.80 98 1005.2
20260505085725 61 132 2.6 3.5 0.05 0.79 0.79 98 1005.2
20260505085223 61 202 1.7 2.6 0.12 0.79 0.79 98 1005.1
20260505084720 61 205 1.7 2.6 0.19 0.78 0.78 98 1004.9
20260505084219 61 52 0.9 3.5 0.12 0.77 0.77 98 1005.0
20260505083716 61 160 3.5 4.3 0.12 0.75 0.75 98 1005.1
20260505083213 61 239 0.0 0.9 0.12 0.75 0.75 98 1005.0
20260505082708 61 304 0.9 0.9 0.00 0.73 0.73 98 1005.4
20260505082206 61 179 3.5 3.5 0.42 0.73 0.73 98 1005.7
20260505081701 61 221 0.9 0.9 0.78 0.73 0.73 98 1005.7
20260505081159 61 258 0.0 0.0 0.54 0.67 0.67 98 1005.6
20260505080656 61 165 1.7 2.6 0.19 0.60 0.60 98 1005.9
20260505080152 61 227 0.9 0.9 0.24 0.58 0.58 98 1006.3
20260505075648 61 279 1.7 2.6 0.24 0.57 0.57 97 1006.4
20260505075145 61 348 1.7 2.6 0.07 0.53 0.53 97 1005.2
20260505074642 61 227 0.9 0.9 0.19 0.53 0.53 97 1005.6
20260505074139 61 127 0.0 0.9 0.12 0.52 0.52 97 1005.1
20260505073637 61 103 0.9 0.9 0.12 0.50 0.50 97 1005.7
20260505073135 61 221 0.9 0.9 0.17 0.50 0.50 97 1005.9
20260505072630 61 167 1.7 2.6 0.19 0.49 0.49 97 1005.8
20260505072127 61 121 1.7 2.6 0.12 0.47 0.47 97 1006.4
20260505071622 61 263 0.0 0.9 0.24 0.46 0.46 96 1007.1
20260505071120 61 284 0.9 0.9 0.50 0.45 0.45 96 1006.5
20260505070617 61 204 0.0 0.9 0.59 0.42 0.42 96 1006.3
20260505070113 61 232 0.9 0.9 0.59 0.38 0.38 96 1007.5
20260505065609 61 291 0.0 0.9 0.54 0.32 0.32 96 1007.6
20260505065106 61 285 0.9 0.9 0.42 0.27 0.27 95 1007.8
20260505064603 61 280 1.7 2.6 0.66 0.24 0.24 95 1007.2
20260505064102 61 284 1.7 3.5 0.78 0.20 0.20 94 1007.3
20260505063558 61 295 1.7 2.6 0.35 0.12 0.12 93 1007.5
20260505063054 62 292 1.7 2.6 0.12 0.07 0.07 93 1007.3
20260505062551 62 340 2.6 2.6 0.19 0.06 0.06 91 1006.5
20260505062048 62 274 0.0 0.9 0.19 0.05 0.05 90 1005.9
20260505061546 62 170 3.5 4.3 0.19 0.04 0.04 89 1005.2
20260505061043 63 107 2.6 3.5 0.05 0.02 0.02 86 1005.6
20260505060541 64 229 3.5 3.5 0.00 0.01 0.01 82 1005.5
20260505060037 64 211 0.9 0.9 0.07 0.01 0.01 81 1005.1
20260505055532 64 196 4.3 6.1 0.07 0.01 0.01 80 1005.0
20260505055030 65 185 2.6 4.3 0.00 0.00 0.00 79 1004.5
20260505054527 65 85 0.9 2.6 0.00 0.00 0.00 79 1004.5
20260505054025 65 292 0.9 2.6 0.00 0.00 0.00 78 1004.6
20260505053522 65 173 4.3 4.3 0.00 0.00 0.00 76 1004.9
20260505053018 66 220 1.7 2.6 0.00 0.00 0.00 75 1005.0
20260505052516 66 84 1.7 2.6 0.00 0.00 0.00 73 1005.0
20260505052013 67 88 1.7 3.5 0.00 0.00 0.00 74 1005.4
20260505051509 67 145 5.2 6.1 0.00 0.00 0.00 70 1005.3
20260505051008 67 212 1.7 3.5 0.00 0.00 0.00 69 1005.6
20260505050506 67 204 6.1 7.0 0.00 0.00 0.00 69 1005.2
20260505041433 68 45 3.5 4.3 0.00 0.00 0.00 68 1005.1
20260505040931 68 157 5.2 7.0 0.00 0.00 0.00 68 1005.3
20260505040428 68 156 2.6 3.5 0.00 0.00 0.00 69 1005.3
20260505035924 67 157 1.7 2.6 0.00 0.00 0.00 69 1005.5
20260505035421 67 195 2.6 4.3 0.00 0.00 0.00 71 1005.5
20260505034918 67 152 3.5 4.3 0.00 0.00 0.00 70 1005.6
20260505034414 67 185 0.9 0.9 0.00 0.00 0.00 71 1005.9
20260505033912 67 196 1.7 2.6 0.00 0.00 0.00 71 1005.8
20260505033408 67 194 1.7 2.6 0.00 0.00 0.00 71 1005.9
20260505032907 67 225 0.0 0.9 0.00 0.00 0.00 71 1006.1
20260505032402 67 200 1.7 3.5 0.00 0.00 0.00 72 1006.1
20260505031859 67 215 0.0 0.9 0.00 0.00 0.00 71 1006.0
20260505031356 68 233 0.0 0.0 0.00 0.00 0.00 70 1005.9
20260505030854 67 191 1.7 2.6 0.00 0.00 0.00 70 1005.9
20260505030349 67 203 0.9 0.9 0.00 0.00 0.00 71 1006.0
20260505025845 67 196 1.7 2.6 0.00 0.00 0.00 70 1005.9
20260505025343 67 196 0.9 0.9 0.00 0.00 0.00 70 1006.1
20260505024841 67 190 1.7 2.6 0.00 0.00 0.00 70 1005.8
20260505024339 66 221 0.9 0.9 0.00 0.00 0.00 71 1005.9
20260505023835 66 176 0.9 0.9 0.00 0.00 0.00 73 1005.8
20260505023332 67 230 0.0 0.0 0.00 0.00 0.00 73 1005.5
20260505022830 68 198 0.0 0.9 0.00 0.00 0.00 69 1005.7
20260505022326 68 219 0.0 0.0 0.00 0.00 0.00 70 1005.6
20260505021824 68 219 1.7 2.6 0.00 0.00 0.00 69 1005.6
20260505021320 68 102 0.0 0.9 0.00 0.00 0.00 69 1005.7
20260505020816 68 210 0.9 0.9 0.00 0.00 0.00 70 1005.5
20260505020312 68 132 1.7 2.6 0.00 0.00 0.00 70 1005.7